This demonstration page uses our WeatherBlox Daily Observations layout. Learn more.

Left ArrowRight Arrow

44.8408, -93.29828

Hourly Observations for June 11, 2015

Temp ( °F °C ) Dew Point ( °F °C ) Humidity (%) Winds ( mph kmh ) Pressure ( in mb ) Visibility ( mi km ) Precip ( " mm )
12:53 am 00:53 Mostly Cloudy 66 18.9 51 10.6 59 59 N 7 11 29.84 1011 10 16 0.00 0.00
1:53 am 01:53 Cloudy 67 19.4 52 11.1 59 59 N 5 7 29.87 1012 10 16 0.00 0.00
2:53 am 02:53 Cloudy 66 18.9 53 11.7 63 63 NE 3 6 29.88 1012 10 16 0.00 0.00
3:53 am 03:53 Mostly Cloudy 65 18.3 53 11.7 66 66 N 6 9 29.87 1012 10 16 0.00 0.00
4:53 am 04:53 Cloudy with Light Rain 65 18.3 55 12.8 70 70 NE 5 7 29.88 1012 10 16 0.01 0.25
5:53 am 05:53 Cloudy with Light Rain 62 16.7 57 13.9 84 84 NE 7 11 29.90 1012 7 11 0.03 0.76
6:53 am 06:53 Cloudy with Light Rain 61 16.1 58 14.4 90 90 E 8 13 29.92 1013 5 8 0.07 1.78
7:53 am 07:53 Cloudy with Light Rain 61 16.1 58 14.4 90 90 ENE 8 13 29.91 1013 9 14 0.03 0.76
8:53 am 08:53 Cloudy with Light Rain 61 16.1 58 14.4 90 90 E 8 13 29.92 1013 8 13 0.01 0.25
9:53 am 09:53 Cloudy with Light Rain 61 16.1 58 14.4 90 90 NE 9 15 29.91 1013 7 11 0.02 0.51
10:53 am 10:53 Cloudy with Light Rain 62 16.7 59 15 90 90 ENE 12 19 29.89 1012 8 13 0.02 0.51
11:06 am 11:06 Cloudy with Light Rain 63 17 59 15 88 88 E 14 22 29.88 1012 8 13 0.00 0.00
11:34 am 11:34 Cloudy with Light Rain 63 17 61 16 94 94 ENE 13 20 29.88 1012 8 13 0.00 0.00
11:53 am 11:53 Cloudy with Light Rain 62 16.7 59 15 90 90 ENE 14 22 29.87 1012 9 14 0.00 0.03
12:11 pm 12:11 Cloudy with Light Rain 63 17 59 15 88 88 E 13 20 29.88 1012 8 13 0.00 0.00
12:32 pm 12:32 Cloudy with Light Rain 63 17 59 15 88 88 E 10 17 29.88 1012 8 13 0.00 0.00
12:49 pm 12:49 Cloudy with Light Rain 63 17 57 14 83 83 ENE 9 15 29.91 1013 8 13 0.01 0.25
12:53 pm 12:53 Cloudy with Light Rain 62 16.7 58 14.4 86 86 E 9 15 29.89 1012 8 13 0.01 0.25
1:12 pm 13:12 Cloudy with Light Rain 62 16.7 59 15 90 90 ENE 9 15 29.91 1013 8 13 0.01 0.25
1:53 pm 13:53 Cloudy with Light Rain 62 16.7 58 14.4 86 86 ENE 10 17 29.90 1012 8 13 0.03 0.76
2:53 pm 14:53 Cloudy with Light Rain 61 16.1 59 15 93 93 ENE 12 19 29.90 1013 4 6 0.05 1.27
3:24 pm 15:24 Cloudy with Light Rain 62 16.7 59 15 90 90 ENE 13 20 29.91 1013 6 10 0.01 0.25
3:53 pm 15:53 Cloudy 62 16.7 59 15 90 90 NE 12 19 29.89 1012 10 16 0.02 0.51
4:07 pm 16:07 Cloudy 62 16.7 59 15 90 90 NE 15 24 29.91 1013 8 13 0.00 0.00
4:53 pm 16:53 Cloudy 61 16.1 57 13.9 87 87 NE 16 26 29.89 1012 9 14 0.00 0.00
5:20 pm 17:20 Cloudy 61 16 57 14 88 88 NE 15 24 29.88 1012 10 16 0.00 0.00
5:30 pm 17:30 Cloudy 61 16 57 14 88 88 NE 13 20 29.88 1012 10 16 0.00 0.00
5:42 pm 17:42 Cloudy 61 16 57 14 88 88 NE 16 26 29.88 1012 10 16 0.00 0.00
5:53 pm 17:53 Cloudy 62 16.7 56 13.3 80 80 NE 16 26 29.88 1012 10 16 0.00 0.00
6:53 pm 18:53 Cloudy 61 16.1 55 12.8 81 81 NE 15 24 29.89 1012 10 16 0.00 0.00
7:53 pm 19:53 Cloudy 62 16.7 55 12.8 78 78 ENE 13 20 29.89 1012 10 16 0.00 0.00
8:53 pm 20:53 Mostly Cloudy 61 16.1 55 12.8 81 81 ENE 13 20 29.88 1012 10 16 0.00 0.00
9:53 pm 21:53 Cloudy 61 16.1 55 12.8 81 81 ENE 14 22 29.88 1012 10 16 0.00 0.00
10:53 pm 22:53 Mostly Cloudy 60 15.6 55 12.8 84 84 ENE 13 20 29.88 1012 10 16 0.00 0.00
11:53 pm 23:53 Mostly Cloudy 59 15 53 11.7 81 81 ENE 10 17 29.88 1012 10 16 0.00 0.00

Powered by AerisWeather